Location: Te Maire Creek
(41.1333°S, 175.9167°E)
Time: 16:35:01
(UTC+00:00)

SL-16 R/B - Pass Details

Date: 19 May 2024
Orbit: 842 x 845 km, 71.0° (Epoch: 12 June)

Event Time Altitude Azimuth Distance (km) Brightness Sun altitude
Rises 18:18:07 0° 308° (NW) 3,402 5.0 -12.1°
Reaches altitude 10° 18:20:50 10° 297° (WNW) 2,474 4.2 -11.6°
Maximum altitude 18:25:49 31° 236° (SW) 1,472 3.0 -10.7°
Drops below altitude 10° 18:30:50 10° 175° (S) 2,495 4.5 -9.8°
Sets 18:33:37 0° 164° (SSE) 3,436 5.4 -9.3°
